User: anonymous   Login
Location: Zlin
(49.2330°N, 17.6670°E)
Time: 06:17:25
(UTC+02:00)
Language:

ISS - Orbit

View from above orbital plane
View from above orbital plane
View from above satellite
View from above satellite

Ground track
Ground track

The orbit data is extracted from the following two-line orbital elements,

1 25544U 98067A   15213.96860271  .00004803  00000-0  77418-4 0  9997
2 25544 051.6429 215.4345 0001227 034.1977 055.9364 15.54960882955162
Epoch (UTC): 01 August 2015 23:14:47
Eccentricity: 0.0001227
inclination: 51.6429°
perigee height: 401 km
apogee height: 403 km
right ascension of ascending node: 215.4345°
argument of perigee: 34.1977°
revolutions per day: 15.54960882
mean anomaly at epoch: 55.9364°
orbit number at epoch: 95516

The dashed part of the orbit path shows where the satellite is in the earth's shadow,  

DLR